Time,TemperatureF,DewpointF,PressureIn,WindDirection,WindDirectionDegrees,WindSpeedMPH,WindSpeedGustMPH,Humidity,HourlyPrecipIn,Conditions,Clouds,dailyrainin,SoftwareType,DateUTC
2013-03-24 00:00:00,33.6,20.0,29.85,NNW,334,1.0,15.0,57,0.00,,,0.00,Wunderground v.1.15,2013-03-24 04:00:00,
2013-03-24 00:05:00,33.6,20.0,29.85,WNW,290,2.0,15.0,57,0.00,,,0.00,Wunderground v.1.15,2013-03-24 04:05:00,
2013-03-24 00:10:00,33.6,20.0,29.85,NNW,338,2.0,15.0,57,0.00,,,0.00,Wunderground v.1.15,2013-03-24 04:10:00,
2013-03-24 00:20:00,33.5,19.9,29.85,WNW,287,2.0,2.0,57,0.00,,,0.00,Wunderground v.1.15,2013-03-24 04:20:00,
2013-03-24 00:30:00,33.7,20.5,29.85,West,264,3.0,3.0,58,0.00,,,0.00,Wunderground v.1.15,2013-03-24 04:30:00,
2013-03-24 00:40:00,33.4,20.6,29.85,WSW,257,1.0,15.0,59,0.00,,,0.00,Wunderground v.1.15,2013-03-24 04:40:00,
2013-03-24 00:45:00,33.3,20.5,29.85,WNW,297,1.0,15.0,59,0.00,,,0.00,Wunderground v.1.15,2013-03-24 04:45:00,
2013-03-24 00:55:00,33.2,20.8,29.86,SW,229,2.0,15.0,60,0.00,,,0.00,Wunderground v.1.15,2013-03-24 04:55:00,
2013-03-24 01:05:00,33.2,20.8,29.86,NNW,328,3.0,15.0,60,0.00,,,0.00,Wunderground v.1.15,2013-03-24 05:05:00,
2013-03-24 01:10:00,33.2,20.8,29.86,WNW,283,3.0,3.0,60,0.00,,,0.00,Wunderground v.1.15,2013-03-24 05:10:00,
2013-03-24 01:20:00,33.0,20.6,29.86,WNW,294,1.0,15.0,60,0.00,,,0.00,Wunderground v.1.15,2013-03-24 05:20:00,
2013-03-24 01:30:00,32.6,20.6,29.86,NW,304,1.0,1.0,61,0.00,,,0.00,Wunderground v.1.15,2013-03-24 05:30:00,
2013-03-24 01:40:00,32.3,21.1,29.86,WNW,284,1.0,15.0,63,0.00,,,0.00,Wunderground v.1.15,2013-03-24 05:40:00,
2013-03-24 01:50:00,32.2,21.0,29.86,WNW,300,1.0,1.0,63,0.00,,,0.00,Wunderground v.1.15,2013-03-24 05:50:00,
2013-03-24 02:00:00,31.8,21.0,29.86,WSW,240,0.0,15.0,64,0.00,,,0.00,Wunderground v.1.15,2013-03-24 06:00:00,
2013-03-24 02:10:00,31.7,21.3,29.86,WNW,302,1.0,15.0,65,0.00,,,0.00,Wunderground v.1.15,2013-03-24 06:10:00,
2013-03-24 02:20:00,31.7,21.3,29.86,SSW,200,1.0,1.0,65,0.00,,,0.00,Wunderground v.1.15,2013-03-24 06:20:00,
2013-03-24 02:25:00,31.6,21.2,29.86,WNW,287,1.0,4.0,65,0.00,,,0.00,Wunderground v.1.15,2013-03-24 06:25:00,
2013-03-24 02:35:00,31.7,21.3,29.85,WNW,288,1.0,15.0,65,0.00,,,0.00,Wunderground v.1.15,2013-03-24 06:35:00,
2013-03-24 02:40:00,31.6,21.5,29.85,WNW,297,1.0,15.0,66,0.00,,,0.00,Wunderground v.1.15,2013-03-24 06:40:00,
2013-03-24 02:50:00,31.5,21.8,29.84,NW,304,1.0,15.0,67,0.00,,,0.00,Wunderground v.1.15,2013-03-24 06:50:00,
2013-03-24 03:00:00,31.4,21.3,29.85,NNW,328,1.0,15.0,66,0.00,,,0.00,Wunderground v.1.15,2013-03-24 07:00:00,
2013-03-24 03:11:00,31.2,21.5,29.84,WNW,294,1.0,15.0,67,0.00,,,0.00,Wunderground v.1.15,2013-03-24 07:11:00,
2013-03-24 03:20:00,31.2,21.9,29.83,WNW,300,2.0,15.0,68,0.00,,,0.00,Wunderground v.1.15,2013-03-24 07:20:00,
2013-03-24 03:30:00,31.0,21.7,29.82,NNW,338,1.0,15.0,68,0.00,,,0.00,Wunderground v.1.15,2013-03-24 07:30:00,
2013-03-24 03:40:00,30.8,21.8,29.81,WNW,288,2.0,2.0,69,0.00,,,0.00,Wunderground v.1.15,2013-03-24 07:40:00,
2013-03-24 03:50:00,30.9,21.9,29.82,WNW,290,2.0,15.0,69,0.00,,,0.00,Wunderground v.1.15,2013-03-24 07:50:00,
2013-03-24 03:55:00,31.0,22.0,29.83,WNW,283,1.0,15.0,69,0.00,,,0.00,Wunderground v.1.15,2013-03-24 07:55:00,
2013-03-24 04:05:00,30.9,21.9,29.82,WNW,302,1.0,2.0,69,0.00,,,0.00,Wunderground v.1.15,2013-03-24 08:05:00,
2013-03-24 04:11:00,30.8,22.2,29.81,WNW,300,2.0,2.0,70,0.00,,,0.00,Wunderground v.1.15,2013-03-24 08:11:00,
2013-03-24 04:20:00,30.6,22.0,29.82,NW,318,1.0,15.0,70,0.00,,,0.00,Wunderground v.1.15,2013-03-24 08:20:00,
2013-03-24 04:25:00,30.6,22.0,29.81,WNW,296,1.0,15.0,70,0.00,,,0.00,Wunderground v.1.15,2013-03-24 08:25:00,
2013-03-24 04:35:00,30.4,21.8,29.81,WNW,290,1.0,15.0,70,0.00,,,0.00,Wunderground v.1.15,2013-03-24 08:35:00,
2013-03-24 04:45:00,30.4,21.8,29.83,SW,224,1.0,15.0,70,0.00,,,0.00,Wunderground v.1.15,2013-03-24 08:45:00,
2013-03-24 04:55:00,30.2,21.6,29.83,SSW,204,1.0,15.0,70,0.00,,,0.00,Wunderground v.1.15,2013-03-24 08:55:00,
2013-03-24 05:05:00,29.9,21.6,29.84,WSW,248,1.0,15.0,71,0.00,,,0.00,Wunderground v.1.15,2013-03-24 09:05:00,
2013-03-24 05:15:00,29.7,21.8,29.83,SW,222,0.0,15.0,72,0.00,,,0.00,Wunderground v.1.15,2013-03-24 09:15:00,
2013-03-24 05:20:00,29.4,21.5,29.83,WNW,302,0.0,15.0,72,0.00,,,0.00,Wunderground v.1.15,2013-03-24 09:20:00,
2013-03-24 05:30:00,29.4,21.8,29.84,SSW,203,0.0,15.0,73,0.00,,,0.00,Wunderground v.1.15,2013-03-24 09:30:00,
2013-03-24 05:40:00,29.6,22.0,29.84,West,266,0.0,15.0,73,0.00,,,0.00,Wunderground v.1.15,2013-03-24 09:40:00,
2013-03-24 05:50:00,30.0,22.1,29.84,SW,228,2.0,15.0,72,0.00,,,0.00,Wunderground v.1.15,2013-03-24 09:50:00,
2013-03-24 06:00:00,30.0,22.1,29.84,WNW,293,1.0,15.0,72,0.00,,,0.00,Wunderground v.1.15,2013-03-24 10:00:00,
2013-03-24 06:05:00,30.0,22.1,29.85,SSE,165,1.0,15.0,72,0.00,,,0.00,Wunderground v.1.15,2013-03-24 10:05:00,
2013-03-24 06:11:00,30.1,22.2,29.85,WSW,252,1.0,15.0,72,0.00,,,0.00,Wunderground v.1.15,2013-03-24 10:11:00,
2013-03-24 06:20:00,30.2,21.9,29.85,NW,316,2.0,15.0,71,0.00,,,0.00,Wunderground v.1.15,2013-03-24 10:20:00,
2013-03-24 06:25:00,30.2,21.9,29.86,South,191,2.0,15.0,71,0.00,,,0.00,Wunderground v.1.15,2013-03-24 10:25:00,
2013-03-24 06:30:00,30.2,21.9,29.86,NW,323,1.0,15.0,71,0.00,,,0.00,Wunderground v.1.15,2013-03-24 10:30:00,
2013-03-24 06:40:00,30.0,22.1,29.86,WNW,300,1.0,15.0,72,0.00,,,0.00,Wunderground v.1.15,2013-03-24 10:40:00,
2013-03-24 06:50:00,29.9,22.0,29.86,WSW,250,1.0,15.0,72,0.00,,,0.00,Wunderground v.1.15,2013-03-24 10:50:00,
2013-03-24 07:00:00,29.8,21.9,29.86,West,280,1.0,15.0,72,0.00,,,0.00,Wunderground v.1.15,2013-03-24 11:00:00,
2013-03-24 07:05:00,29.6,22.0,29.86,West,281,0.0,15.0,73,0.00,,,0.00,Wunderground v.1.15,2013-03-24 11:05:00,
2013-03-24 07:10:00,29.7,22.1,29.86,SW,231,0.0,15.0,73,0.00,,,0.00,Wunderground v.1.15,2013-03-24 11:10:00,
2013-03-24 07:20:00,30.6,22.3,29.86,WNW,301,1.0,15.0,71,0.00,,,0.00,Wunderground v.1.15,2013-03-24 11:20:00,
2013-03-24 07:30:00,31.8,22.8,29.85,WNW,287,1.0,1.0,69,0.00,,,0.00,Wunderground v.1.15,2013-03-24 11:30:00,
2013-03-24 07:40:00,33.1,23.3,29.85,SW,233,0.0,15.0,67,0.00,,,0.00,Wunderground v.1.15,2013-03-24 11:40:00,
2013-03-24 07:50:00,33.0,22.9,29.85,WNW,287,1.0,15.0,66,0.00,,,0.00,Wunderground v.1.15,2013-03-24 11:50:00,
2013-03-24 08:00:00,33.4,22.9,29.86,NW,312,1.0,15.0,65,0.00,,,0.00,Wunderground v.1.15,2013-03-24 12:00:00,
2013-03-24 08:11:00,33.9,23.4,29.87,West,262,1.0,15.0,65,0.00,,,0.00,Wunderground v.1.15,2013-03-24 12:11:00,
2013-03-24 08:20:00,34.1,23.2,29.87,North,349,2.0,2.0,64,0.00,,,0.00,Wunderground v.1.15,2013-03-24 12:20:00,
2013-03-24 08:25:00,34.5,23.2,29.87,NNW,335,2.0,3.0,63,0.00,,,0.00,Wunderground v.1.15,2013-03-24 12:25:00,
2013-03-24 08:35:00,34.8,23.1,29.88,SW,222,2.0,15.0,62,0.00,,,0.00,Wunderground v.1.15,2013-03-24 12:35:00,
2013-03-24 08:40:00,35.5,23.4,29.88,WNW,287,2.0,15.0,61,0.00,,,0.00,Wunderground v.1.15,2013-03-24 12:40:00,
2013-03-24 08:50:00,36.0,23.4,29.88,NNW,335,3.0,15.0,60,0.00,,,0.00,Wunderground v.1.15,2013-03-24 12:50:00,